Miscellaneous Local Product
Issued by NWS Hastings, NE

Home | Current Version | Previous Version | Graphics & Text | Print | Product List | Glossary On
Versions: 1 2 3 4 5 6 7 8 9 10 11 12 13 14 15 16 17 18 19 20 21 22 23 24 25 26 27 28 29 30 31 32 33 34 35 36 37 38 39 40 41 42 43 44 45 46 47 48 49 50
000
AXUS43 KGID 280902
MISGRI

GID CWA HOURLY WEATHER ROUNDUP
NATIONAL WEATHER SERVICE HASTINGS NE
400 AM CDT THU MAY 28 2015

NOTE: "FAIR" INDICATES FEW OR NO CLOUDS BELOW 12,000 FEET WITH NO
SIGNIFICANT WEATHER AND/OR OBSTRUCTIONS TO VISIBILITY.

...SOUTH CENTRAL NEBRASKA...

CITY           SKY/WX    TMP DP  RH WIND       PRES   REMARKS
GRAND ISLAND   MOCLDY    63  57  81 SE8       30.01F
HASTINGS       CLOUDY    63  58  83 SE10      30.01S
KEARNEY        CLOUDY    61  57  88 SE9       30.02R
ORD            MOCLDY    59  56  89 SE5       29.98F
YORK           CLOUDY    63  55  77 SE10      30.02F
AURORA         CLOUDY    64  57  80 SE10      30.01F
LEXINGTON      PTCLDY    57  56  96 SE5       30.01R FOG
HOLDREGE       MOCLDY    59  56  92 S6        30.02R
HEBRON         CLOUDY    64  57  77 CALM      30.03R

...NEBRASKA PANHANDLE...

CITY           SKY/WX    TMP DP  RH WIND       PRES   REMARKS
CHADRON        MOCLDY    59  52  77 CALM      29.94S
ALLIANCE       CLOUDY    53  51  93 W8        30.01F
SCOTTSBLUFF    MOCLDY    56  52  86 E7        30.01F
SIDNEY         MOCLDY    52  51  97 SE6       30.03F

...WESTERN AND NORTH CENTRAL NEBRASKA...

CITY           SKY/WX    TMP DP  RH WIND       PRES   REMARKS
VALENTINE      PTCLDY    56  54  93 SE9       29.97S
AINSWORTH      CLEAR     57  56  97 S7        29.99F
ONEILL         PTCLDY    61  58  87 S6        30.00F
BROKEN BOW     PTCLDY    54  52  93 CALM      29.99F FOG
IMPERIAL       CLEAR     53  50  89 SE3       30.00S
NORTH PLATTE   PTCLDY    55  53  93 E3        30.01S
MCCOOK         MOCLDY    57  52  83 SE3       30.00R

...EASTERN NEBRASKA...

CITY           SKY/WX    TMP DP  RH WIND       PRES   REMARKS
NORFOLK        PTCLDY    63  52  67 S10       30.02S
SO SIOUX CITY  PTCLDY    59  52  77 E8        30.04S
TEKAMAH        PTCLDY    59  53  80 S5        30.04S
COLUMBUS       MOCLDY    64  52  63 SE9       30.04F
ALBION         MOCLDY    62  53  71 SE6       30.02S
OMAHA EPPLEY   CLOUDY    64  54  69 SE3       30.04F
OFFUTT AFB     MOCLDY    56  54  95 E5        30.04F
MILLARD        MOCLDY    60  55  83 CALM      30.04F
LINCOLN        CLOUDY    65  54  67 SE5       30.03F
NEBRASKA CITY  CLOUDY    64  53  67 SE8       30.05F
BEATRICE       CLOUDY    65  56  72 S3        30.03S
FALLS CITY     NOT AVBL

...NORTHERN KANSAS...

CITY           SKY/WX    TMP DP  RH WIND       PRES   REMARKS
GOODLAND       PTCLDY    55  54  96 S16       30.02R
HILL CITY      CLOUDY    59  54  83 E5        30.00S
NORTON         SUNNY     57  55  94 CALM      30.00S
PHILLIPSBURG   CLEAR     61  61 100 E7        30.00S
HAYS           CLOUDY    57  48  72 S5        30.00R
RUSSELL        CLOUDY    60  55  83 S3        29.99R
CONCORDIA      CLOUDY    63  61  93 SE9       30.01R
SALINA         CLOUDY    64  61  90 SE5       30.00S
TOPEKA         CLOUDY    67  58  72 E6        30.04F



USA.gov is the U.S. government's official web portal to all federal, state and local government web resources and services.